Location: Unspecified
(0.0000°N, 0.0000°E)
Time: 07:10:00
(UTC+00:00)

Transit 2A - All Passes

Search period start: 20 October 2021 00:00
Search period end: 30 October 2021 00:00
Orbit: 593 x 965 km, 66.7° (Epoch: 19 October)

Date Brightness Start Highest point End Pass type
(mag) Time Alt. Az. Time Alt. Az. Time Alt. Az.
20 Oct - 08:39:18 10° SSE 08:42:59 26° ESE 08:46:51 10° NE daylight
20 Oct - 10:23:40 10° W 10:25:54 14° WNW 10:28:13 10° NW daylight
20 Oct - 21:12:04 10° NNW 21:18:21 85° WSW 21:24:13 10° SSE night (unlit)
21 Oct - 08:06:27 10° SE 08:08:52 14° ESE 08:11:21 10° ENE daylight
21 Oct - 09:48:03 10° WSW 09:51:40 24° WNW 09:55:30 10° NNW daylight
21 Oct - 20:38:00 10° N 20:44:10 61° ENE 20:49:57 10° SSE night (unlit)
21 Oct - 22:25:47 10° W 22:27:01 11° WSW 22:28:14 10° WSW night (unlit)
22 Oct - 09:13:14 10° SW 09:17:27 43° WNW 09:22:00 10° N daylight
22 Oct - 20:04:13 10° N 20:09:58 38° ENE 20:15:22 10° SE night (unlit)
22 Oct - 21:48:47 10° WNW 21:52:52 18° WSW 21:56:47 10° SSW night (unlit)
23 Oct - 08:38:51 10° SSW 08:43:17 81° WNW 08:48:03 10° NNE daylight
23 Oct - 19:30:52 10° NNE 19:35:44 24° ENE 19:40:22 10° ESE night (unlit)
23 Oct - 21:13:27 10° NW 21:18:44 30° WSW 21:23:44 10° SSW night (unlit)
24 Oct - 08:04:49 10° S 08:09:08 54° ESE 08:13:46 10° NNE daylight
24 Oct - 18:58:14 10° NE 19:01:29 15° ENE 19:04:37 10° E visible
24 Oct - 20:38:39 10° NW 20:44:36 48° WSW 20:50:10 10° S visible
25 Oct - 07:31:10 10° S 07:35:00 29° ESE 07:39:06 10° NE daylight
25 Oct - 09:16:06 10° W 09:17:58 12° WNW 09:19:54 10° NW daylight
25 Oct - 20:04:14 10° NNW 20:10:28 78° WSW 20:16:15 10° SSE visible
26 Oct - 06:58:05 10° SSE 07:00:53 16° ESE 07:03:48 10° ENE daylight
26 Oct - 08:40:14 10° WSW 08:43:43 22° WNW 08:47:25 10° NNW daylight
26 Oct - 19:30:05 10° NNW 19:36:18 66° ENE 19:42:03 10° SSE visible
27 Oct - 08:05:19 10° SW 08:09:29 39° WNW 08:14:00 10° N daylight
27 Oct - 18:56:16 10° N 19:02:05 41° ENE 19:07:32 10° SE visible
27 Oct - 20:41:17 10° WNW 20:44:57 17° WSW 20:48:30 10° SSW visible
28 Oct - 07:30:52 10° SSW 07:35:18 72° WNW 07:40:08 10° NNE daylight
28 Oct - 18:22:49 10° NNE 18:27:52 26° ENE 18:32:37 10° ESE visible
28 Oct - 20:05:46 10° NW 20:10:50 27° WSW 20:15:37 10° SSW visible
29 Oct - 06:56:46 10° S 07:01:10 61° ESE 07:05:55 10° NNE daylight
29 Oct - 17:50:01 10° NNE 17:53:35 16° ENE 17:57:03 10° ESE daylight
29 Oct - 19:30:53 10° NW 19:36:42 43° WSW 19:42:07 10° S visible
